TimeEDT,TemperatureF,Dew PointF,Humidity,Sea Level PressureIn,VisibilityMPH,Wind Direction,Wind SpeedMPH,Gust SpeedMPH,PrecipitationIn,Events,Conditions,WindDirDegrees,DateUTC
12:15 AM,55.2,51.8,88,30.18,10.0,Calm,Calm,-,N/A,,Clear,0,2012-10-26 04:15:00
12:55 AM,53.4,50.5,90,30.17,10.0,Calm,Calm,-,N/A,,Clear,0,2012-10-26 04:55:00
1:35 AM,54.3,52.3,93,30.16,10.0,Calm,Calm,-,N/A,,Clear,0,2012-10-26 05:35:00
2:15 AM,51.8,49.6,92,30.16,10.0,South,3.5,-,N/A,,Clear,170,2012-10-26 06:15:00
2:35 AM,52.3,50.5,94,30.16,10.0,Calm,Calm,-,N/A,,Clear,0,2012-10-26 06:35:00
2:55 AM,50.9,48.7,92,30.16,10.0,Calm,Calm,-,N/A,,Clear,0,2012-10-26 06:55:00
3:15 AM,52.0,49.8,92,30.16,10.0,Calm,Calm,-,N/A,,Clear,0,2012-10-26 07:15:00
3:35 AM,51.3,49.6,94,30.16,7.0,Calm,Calm,-,N/A,,Clear,0,2012-10-26 07:35:00
3:55 AM,52.2,50.7,95,30.17,10.0,Calm,Calm,-,N/A,,Clear,0,2012-10-26 07:55:00
4:15 AM,52.2,50.7,95,30.17,7.0,Calm,Calm,-,N/A,,Clear,0,2012-10-26 08:15:00
4:35 AM,51.3,50.2,96,30.18,5.0,Calm,Calm,-,N/A,,Clear,0,2012-10-26 08:35:00
4:55 AM,51.4,50.2,95,30.19,7.0,Calm,Calm,-,N/A,,Scattered Clouds,0,2012-10-26 08:55:00
5:15 AM,50.7,49.3,95,30.19,5.0,Calm,Calm,-,N/A,,Mostly Cloudy,0,2012-10-26 09:15:00
5:35 AM,52.0,50.7,95,30.19,7.0,Calm,Calm,-,N/A,,Scattered Clouds,0,2012-10-26 09:35:00
5:55 AM,51.8,50.5,95,30.18,7.0,Calm,Calm,-,N/A,,Mostly Cloudy,0,2012-10-26 09:55:00
6:35 AM,53.1,52.2,97,30.19,4.0,Calm,Calm,-,N/A,,Scattered Clouds,0,2012-10-26 10:35:00
6:55 AM,51.3,50.4,97,30.20,2.5,Calm,Calm,-,N/A,,Scattered Clouds,0,2012-10-26 10:55:00
7:15 AM,51.1,50.2,97,30.20,5.0,Calm,Calm,-,N/A,,Scattered Clouds,0,2012-10-26 11:15:00
7:35 AM,51.1,50.2,97,30.20,1.0,Calm,Calm,-,N/A,,Mist,0,2012-10-26 11:35:00
7:55 AM,50.9,50.0,97,30.20,0.8,Calm,Calm,-,N/A,,Mostly Cloudy,0,2012-10-26 11:55:00
8:15 AM,51.4,50.5,97,30.20,0.5,Calm,Calm,-,N/A,Fog,Fog,0,2012-10-26 12:15:00
9:35 AM,59.7,56.3,88,30.21,7.0,Calm,Calm,-,N/A,,Scattered Clouds,0,2012-10-26 13:35:00
9:55 AM,62.1,57.0,84,30.20,10.0,East,4.6,-,N/A,,Clear,90,2012-10-26 13:55:00
10:15 AM,63.1,57.4,81,30.20,10.0,ESE,4.6,-,N/A,,Clear,110,2012-10-26 14:15:00
10:35 AM,64.4,57.2,77,30.21,10.0,ESE,5.8,-,N/A,,Clear,120,2012-10-26 14:35:00
11:15 AM,68.0,58.3,71,30.20,10.0,ENE,6.9,-,N/A,,Clear,60,2012-10-26 15:15:00
11:35 AM,68.5,58.3,70,30.19,10.0,ENE,5.8,-,N/A,,Clear,60,2012-10-26 15:35:00
11:55 AM,69.8,58.8,68,30.19,10.0,ENE,5.8,-,N/A,,Clear,70,2012-10-26 15:55:00
12:15 PM,70.5,58.5,66,30.17,10.0,East,3.5,-,N/A,,Clear,80,2012-10-26 16:15:00
12:35 PM,72.1,58.6,62,30.16,10.0,East,4.6,-,N/A,,Clear,80,2012-10-26 16:35:00
12:55 PM,73.4,57.7,58,30.15,10.0,East,6.9,-,N/A,,Clear,100,2012-10-26 16:55:00
1:15 PM,73.6,54.7,51,30.13,10.0,East,3.5,-,N/A,,Clear,100,2012-10-26 17:15:00
1:35 PM,74.8,54.0,48,30.12,10.0,ENE,5.8,-,N/A,,Scattered Clouds,60,2012-10-26 17:35:00
1:55 PM,73.0,52.9,49,30.11,10.0,East,5.8,-,N/A,,Clear,80,2012-10-26 17:55:00
2:15 PM,74.3,50.0,42,30.11,4.0,East,4.6,-,N/A,,Haze,90,2012-10-26 18:15:00
2:35 PM,73.9,49.8,43,30.10,2.0,ENE,3.5,-,N/A,,Haze,70,2012-10-26 18:35:00
2:55 PM,73.4,48.9,42,30.09,7.0,East,3.5,-,N/A,,Scattered Clouds,90,2012-10-26 18:55:00
3:15 PM,72.5,49.5,44,30.09,10.0,ESE,3.5,-,N/A,,Scattered Clouds,110,2012-10-26 19:15:00
3:35 PM,73.2,49.8,44,30.07,10.0,ESE,3.5,-,N/A,,Clear,110,2012-10-26 19:35:00
3:55 PM,72.9,49.8,44,30.07,10.0,East,5.8,-,N/A,,Clear,100,2012-10-26 19:55:00
4:15 PM,74.8,47.7,38,30.06,10.0,East,3.5,-,N/A,,Clear,100,2012-10-26 20:15:00
4:35 PM,74.1,48.9,41,30.05,10.0,East,4.6,-,N/A,,Clear,90,2012-10-26 20:35:00
4:55 PM,73.8,48.9,41,30.05,10.0,East,4.6,-,N/A,,Clear,100,2012-10-26 20:55:00
5:15 PM,73.4,48.9,42,30.05,10.0,ESE,3.5,-,N/A,,Clear,120,2012-10-26 21:15:00
5:35 PM,71.8,49.6,45,30.05,10.0,East,3.5,-,N/A,,Clear,100,2012-10-26 21:35:00
5:55 PM,71.6,50.2,47,30.05,10.0,ESE,3.5,-,N/A,,Clear,120,2012-10-26 21:55:00
6:15 PM,70.5,50.5,49,30.06,10.0,Calm,Calm,-,N/A,,Clear,0,2012-10-26 22:15:00
6:35 PM,68.7,51.8,55,30.06,10.0,Calm,Calm,-,N/A,,Clear,0,2012-10-26 22:35:00
6:55 PM,66.2,51.6,59,30.07,10.0,ESE,3.5,-,N/A,,Clear,110,2012-10-26 22:55:00
7:15 PM,65.5,52.2,62,30.07,10.0,East,4.6,-,N/A,,Clear,100,2012-10-26 23:15:00
7:35 PM,64.9,53.1,65,30.08,10.0,East,5.8,-,N/A,,Clear,90,2012-10-26 23:35:00
7:55 PM,64.2,55.9,74,30.08,10.0,East,6.9,-,N/A,,Clear,100,2012-10-26 23:55:00
8:15 PM,63.9,56.3,76,30.09,10.0,ENE,4.6,-,N/A,,Clear,70,2012-10-27 00:15:00
8:35 PM,63.7,56.8,78,30.09,10.0,East,5.8,-,N/A,,Mostly Cloudy,80,2012-10-27 00:35:00
9:15 PM,62.8,56.7,80,30.10,10.0,East,5.8,-,N/A,,Mostly Cloudy,80,2012-10-27 01:15:00
9:35 PM,61.9,56.3,82,30.09,10.0,East,8.1,-,N/A,,Clear,90,2012-10-27 01:35:00
9:55 PM,60.8,56.5,86,30.09,10.0,ENE,4.6,-,N/A,,Clear,70,2012-10-27 01:55:00
10:15 PM,59.4,55.8,88,30.09,10.0,East,4.6,-,N/A,,Clear,80,2012-10-27 02:15:00
10:35 PM,58.5,54.9,88,30.09,10.0,ENE,4.6,-,N/A,,Clear,70,2012-10-27 02:35:00
10:55 PM,58.3,54.5,87,30.08,10.0,ENE,5.8,-,N/A,,Clear,70,2012-10-27 02:55:00
11:35 PM,58.6,54.0,84,30.07,10.0,ENE,8.1,-,N/A,,Overcast,70,2012-10-27 03:35:00
11:55 PM,58.3,54.0,86,30.07,10.0,ENE,5.8,-,N/A,,Mostly Cloudy,60,2012-10-27 03:55:00